CAPE
2016 2326 2807 2806 2679 3033 3412 3392 3199 2421 2015 2074 2132 2232 3244 2813 2666 2835 2691 2328 1773 1824 1922 1968 1966 2096 2037 1916 2095 2334 2268 2108 1985 2088 1929 1850 1745 2280 3754 3518 3386 3345 3401 3130 2610 1962 1326 1962 1532 1484 1432 1465 1402 1410 1682 1713 1900 1867 1830 1874 1833 1839 1757 1730 1770 1886 1962 1906 1823 1681 1638 1539 1598 1543 1546 1454 1398 1424 1487 1470 1536 1603 1665 1752 1775
1556 1870 2536 3510 3272 2888 3183 3247 3134 2964 2867 2790 2598 2261 2694 2375 2586 2568 2536 1956 2292 2055 2122 1991 1869 1726 1774 1526 1685 2030 2286 2418 2299 2145 2094 2038 2023 1821 3456 3897 3627 3519 3506 3503 3162 2409 2026 1812 1778 1580 1529 1604 1516 1464 1572 1683 1727 1905 1876 1837 1835 1902 1968 1954 1899 2014 2060 2190 2158 2016 1932 1800 1655 1712 1694 1679 1590 1570 1548 1484 1611 1605 1569 1544 1593
2167 2431 2736 3152 2850 2668 2570 2682 2815 2917 3198 2755 2400 2115 3193 3084 3315 2898 1598 1650 1904 2310 2218 2458 2316 2000 1931 1843 1594 1876 2185 2429 2444 2263 2106 2241 2168 2281 2209 3683 3811 3646 3684 3698 3636 2990 2369 2119 1893 1759 1622 1616 1684 1654 1660 1740 1868 2015 1984 1905 1857 1901 2101 2118 2095 2129 2201 2142 2084 2050 2124 1978 1940 1936 1903 1894 1854 1804 1744 1775 1796 1786 1890 1866 1938
2682 2610 2461 2328 2571 2391 2284 2428 2662 2400 2313 1968 1844 3070 3456 3348 3054 3579 3792 3024 2435 2474 2412 2471 2578 2236 2244 2197 2077 2012 2189 2332 2336 2149 2083 2110 2330 2537 2700 3243 3794 3820 3781 3814 3636 3292 2877 2698 2254 2003 1816 1663 1695 1888 1878 1842 1948 2124 2266 2165 2101 1906 1860 2009 2074 2218 2267 2206 2160 2102 2092 2064 2097 2046 2073 2112 2111 2099 2046 2064 2066 1994 2052 2024 2159
2736 2759 2518 2371 2283 2591 2671 2647 2437 2136 2036 1654 1611 2248 3278 3271 3247 2835 2967 3094 2879 2607 2760 2248 2284 2372 2270 2208 2229 2382 2248 2331 2444 2279 1977 1844 2088 2384 2453 2568 2995 4009 3824 3708 3584 3372 3218 3032 2856 2367 2066 1877 1812 1855 2007 2062 2006 2038 2421 2464 2400 2328 2048 2010 2103 2214 2246 2293 2229 2224 2211 2212 2206 2166 2172 2197 2245 2188 2154 2170 2267 2209 2201 2226 2272
2988 2995 3098 2952 2868 2687 2800 2902 3040 1412 1255 1463 1568 2194 2319 2975 2977 2925 2717 2276 2421 2573 2689 2802 2451 2088 2016 2018 2162 2299 2402 2447 2400 2154 1922 1798 2016 2359 2536 2444 2438 2872 2595 3683 3581 3514 3486 3288 3231 2917 2521 2258 2030 1874 1920 1996 2152 2096 2170 2419 2584 2518 2487 2270 2200 2230 2395 2431 2291 2279 2262 2305 2321 2273 2318 2359 2331 2407 2355 2354 2355 2342 2332 2334 2444
3385 3419 3128 2867 2462 2462 2673 2704 2838 1813 1476 1350 1706 1866 2040 2002 2722 2923 2924 3056 2652 2490 2331 2362 2987 2329 1798 1770 1774 2009 2324 2256 2314 2355 2101 2080 2134 2254 2436 2358 2324 2286 2460 3218 3452 3604 3526 3456 3308 3227 2943 2733 2510 2192 2105 2073 2192 2185 2011 2365 2583 2650 2654 2634 2495 2376 2568 2473 2322 2395 2409 2436 2425 2421 2491 2462 2586 2544 2612 2632 2620 2542 2522 2538 2593
3545 3310 3278 2844 2549 2394 2438 3101 2217 1612 1330 1328 1508 1954 1954 2232 2348 2954 2969 2904 2922 2790 2648 2505 2328 2105 1669 1656 1537 1554 2106 2272 2311 2295 2144 2085 2114 2280 2346 2408 2425 2391 2340 2443 2684 3372 3397 3457 3464 3290 3216 3070 2930 2721 2481 2355 2308 2387 2234 2084 2283 2507 2692 2857 2867 2838 2676 2538 2452 2437 2442 2428 2420 2533 2639 2576 2542 2546 2659 2737 2746 2762 2756 2736 2759
2636 2225 2600 2790 2832 2786 2866 2262 1723 1428 1261 1313 1213 1460 2373 2063 2337 2485 2406 3005 3016 2822 2584 2000 2069 2014 1903 1610 1592 1859 1541 2035 2246 2195 2031 1991 2071 2108 2249 2394 2211 1966 2496 2547 2564 2652 3613 3368 3472 3372 3152 3124 3055 3019 2785 2794 2742 2615 2434 2296 2130 2144 2511 2899 3030 3034 2929 2685 2693 2552 2549 2487 2526 2644 2664 2742 2721 2653 2685 2690 2788 2866 2908 2896 2821
1976 1860 2403 2686 2626 2542 2623 1804 1626 1715 1466 1107 1327 1895 2154 1588 1760 1754 1670 2410 2266 2419 2399 2150 1748 1650 1877 1657 1522 1446 1728 1986 1632 2172 2178 2021 2141 2246 2262 2304 2276 2184 2098 2206 2178 2380 3112 3358 3584 3448 3321 3152 3232 3246 3010 2953 2894 2739 2636 2515 2354 2264 2304 2731 2863 2945 2948 2889 2888 2871 2847 2833 2822 2814 2825 2818 2729 2772 2797 2752 2780 2851 2870 2991 3002
1567 1593 1912 2216 2479 2255 2007 1646 1544 1507 1546 1421 1361 1372 1458 1250 1367 1842 2053 1877 1411 2137 2289 2032 2010 1688 1629 1848 1770 1492 1858 1203 1456 1747 2105 2062 1932 1969 2107 2280 2227 2310 2510 2534 2287 2429 2761 3331 2714 3627 3433 3169 3128 3056 3006 3031 2906 2886 2754 2636 2496 2340 2325 2410 2750 2849 2814 2918 2937 2919 2862 2930 2870 2827 2831 2797 2832 2748 2702 2789 2840 2844 2752 2708 2656
1782 1306 1380 1630 1452 1616 1777 1582 1655 1628 1596 1405 1315 1493 1773 1878 1743 1729 1947 2518 1913 1653 1695 1774 1730 1543 1371 1484 1855 1852 1523 1348 1467 1621 1870 2036 2137 2040 1968 2080 2119 2153 2198 2444 2310 2336 2634 3178 3495 2556 2652 3182 3056 2994 3103 3037 3055 2960 2923 2840 2648 2398 2201 2217 2362 2661 2673 2804 2935 2810 2538 2667 2938 2852 2807 2794 2732 2664 2621 2608 2625 2658 2730 2708 2572
1588 1478 1160 1081 964 1057 1291 1454 1318 1167 1153 1202 1208 1376 1685 2017 2223 2166 1370 1448 1666 1532 1379 1260 1225 1208 1126 1189 1480 1369 1332 1308 1424 2091 1411 1736 1981 2026 2106 2086 2029 2050 2234 2215 2413 2321 2354 2727 3339 3354 3015 2830 3098 2939 3098 3141 3125 3063 3013 2964 2899 2668 2411 2343 2372 2611 2582 2700 2955 2902 2552 2414 2657 2848 2797 2736 2651 2593 2516 2440 2360 2398 2448 2474 2450
1682 1527 1167 1242 1302 1298 1343 1452 1510 1467 1416 1318 1226 1242 1334 1450 1522 1480 1563 1336 1530 1696 1536 1128 904 821 1122 1180 1266 1296 1321 1406 1418 1982 1606 1682 1829 1902 2043 2159 1960 1779 1985 2193 2292 2337 2108 2181 2778 3076 3162 3125 3156 3502 3296 3153 3181 3047 3106 3106 3041 3037 2825 2654 2598 2695 2774 2724 2788 2978 2788 2530 2484 2652 2781 2739 2651 2542 2406 2312 2268 2233 2241 2284 2292
1922 1718 1831 1597 1472 1584 2088 2161 1859 1854 1754 1630 1437 1324 1488 1407 1346 1316 1251 1260 1507 1503 1600 1273 1208 963 986 967 947 1066 1142 1340 1381 1500 1258 1470 1596 1452 1667 1930 1972 1754 1692 1863 1930 2204 1958 1761 2185 2657 2879 2898 2913 2619 2441 2875 2135 2756 3003 2899 2997 3083 3114 3169 3012 3002 3061 2949 2992 3107 3024 2658 2554 2677 2771 2726 2632 2504 2408 2298 2206 2120 2053 2122 2103
1897 1842 1711 1938 1736 1750 1616 1629 1646 1911 2004 1794 1654 1284 1387 1334 1219 1219 1071 912 1065 998 1073 1032 1043 884 585 686 845 864 560 895 1015 1310 1017 534 1370 1086 1408 1684 1754 1919 1752 1666 1508 1749 1918 1998 1857 2372 2816 3050 2932 2648 2402 2514 2207 2496 2797 3054 2709 2712 3032 3232 3228 3069 3129 2994 3118 3146 3004 2853 2603 2435 2701 2880 2783 2637 2435 2326 2241 2140 2020 1994 2000
1805 1943 1840 1772 1628 1630 1607 1576 1560 1546 1409 1420 1405 1164 1268 1152 1127 1128 1012 885 911 880 905 998 868 891 1070 1185 839 687 866 796 452 913 731 1203 1144 1139 903 1300 1426 1982 2142 1698 1580 1702 1750 1950 2066 2028 2376 2913 3240 2968 2430 2004 1876 2136 2592 3620 3227 2564 2512 2880 3105 3133 3034 3067 3203 3376 3187 2914 2744 2602 2666 2958 2977 2832 2641 2430 2303 2184 2095 1982 1952
1327 1392 1470 1461 1581 1743 1853 1745 1474 1552 1427 1213 1182 1206 1230 1218 996 988 1041 1127 1155 707 807 1057 1072 846 848 1050 896 789 693 732 613 668 1077 968 1518 1250 920 920 1213 1989 2289 2104 1888 1875 1738 1867 2017 2134 2210 2440 2707 3059 2810 2309 2028 1828 1864 2198 3206 2812 2506 2426 2856 3053 3113 3139 3198 3304 3477 3272 2929 2826 2942 3076 3194 3041 2910 2661 2430 2301 2182 2104 2056
1109 1161 1302 1430 1542 1894 1751 1605 1560 1888 2014 1913 1560 1516 1435 1490 1182 1072 976 892 1138 1287 846 873 1384 1399 991 801 887 1035 1045 1196 1286 717 430 1202 1424 1333 987 959 977 1567 2352 2228 1632 1881 2003 1862 1686 1698 2201 2299 2372 2472 2564 2602 1787 1908 1987 1979 2522 2771 2571 2350 2288 2629 2810 2871 3004 3119 3437 3718 3430 3093 3019 2972 3211 3228 3049 2979 2714 2511 2352 2244 2167
1316 1435 1500 1679 2083 2312 2096 2252 2335 1552 1074 1203 1676 1521 1220 1400 1367 1311 1205 996 1019 1160 1138 691 1302 1205 1336 1379 1165 1004 1238 1409 1255 1019 893 821 1129 1191 1295 1106 1060 1095 1617 2190 1888 1996 2015 2181 1737 1622 1973 2414 2394 2360 2198 2294 2497 2136 1776 2080 2096 2736 2686 2434 2406 2362 2627 2797 3099 3390 3586 3752 3930 3658 3174 3134 3270 3249 3170 3104 3034 2785 2585 2496 2387
1259 1348 1821 1773 1694 1850 1973 1757 1192 1771 1702 1026 920 1202 1374 1342 1430 1590 1496 1286 1204 1168 859 1228 1571 1431 1192 985 996 1580 1717 1603 1455 1488 848 522 314 509 1111 802 450 753 1227 1518 1807 1709 766 1173 1933 1833 1654 1896 2246 2288 2133 2076 2178 2258 2147 1969 2205 2289 2558 2561 2457 2880 2858 3027 3320 3546 3738 4020 4061 4027 4046 3886 3713 3551 3360 3153 3117 3080 2911 2755 2634
776 935 1363 1445 1512 1536 1517 1494 1180 1048 1344 1297 1292 1623 1114 858 849 1019 1022 1424 1331 1292 1149 1327 915 746 707 615 544 487 866 1554 1287 619 380 252 890 384 318 1256 1311 916 979 1188 1581 1646 1408 1366 1640 1831 1881 1780 2027 2164 2171 2156 2067 1952 1963 1989 2211 2324 2292 2118 2283 2654 2855 2844 3080 3493 3909 4027 4080 4219 4188 4152 4135 3926 3764 3657 3366 3314 3311 3324 3158
589 530 574 560 670 1252 1295 1227 1248 1452 1040 1154 1243 960 1138 1306 974 1034 1739 1626 1501 1231 1084 1294 1207 476 359 299 491 508 413 1166 1059 999 344 883 1298 234 622 788 1129 1094 1276 1014 1106 861 939 1238 1475 1671 2099 2095 1882 1959 2280 2542 2230 1897 1706 1792 1859 2038 2178 2042 1864 2031 2073 2153 2496 2791 3514 3803 4008 4075 4166 4116 4124 4126 4040 3932 3853 3682 3561 3590 3520
499 370 360 317 477 826 1078 990 1095 1237 1366 1174 1163 1493 1408 1308 1306 784 754 794 840 930 938 1400 1412 1217 878 806 646 584 459 526 442 262 602 736 363 123 532 938 1080 911 888 1770 1734 1632 1146 1359 1052 1348 1830 2238 2223 1845 1870 2106 2091 2030 1945 1863 1655 1611 1700 1869 1824 1674 1639 1622 1655 2000 2530 3135 3476 3613 3965 4030 3878 3802 3831 3712 3874 3997 4006 3851 3542
412 366 303 370 394 641 714 747 842 1084 1200 1291 1218 1275 1616 1128 746 727 1028 1122 742 633 810 808 1322 1315 1186 1151 741 524 462 403 311 233 1031 1022 1116 796 226 310 534 400 687 1224 1339 1179 1031 1726 1400 1145 1368 1693 1959 2005 1822 1816 1864 1868 2081 1623 1562 1610 1562 1580 1577 1576 1502 1407 1361 1362 1485 1735 2087 2385 2673 3167 3504 3692 3733 3614 3560 3684 3810 3796 3746
314 429 321 381 368 385 484 505 559 605 655 707 805 820 918 1092 1048 1192 1238 1450 625 424 504 735 766 1246 1110 1022 952 544 463 326 312 1048 938 861 922 497 240 466 334 121 670 861 1131 860 924 1171 1349 1332 1426 1778 1956 1997 2226 1801 1639 1621 1913 1881 1638 1467 1504 1484 1444 1421 1372 1350 1272 1226 1223 1268 1370 1555 1826 2098 2439 2798 3088 3308 3404 3470 3652 3676 3600
298 276 381 400 372 360 434 484 476 462 490 572 680 686 662 889 988 1128 1328 1166 981 960 645 456 506 724 1110 1131 552 949 942 910 1135 578 509 305 225 244 383 241 152 294 323 871 1246 1416 501 655 889 1127 1423 1677 1696 2148 2320 2300 1984 1732 1894 2330 2034 1648 1513 1375 1297 1220 1160 1144 1154 1152 1130 1106 1105 1164 1255 1435 1627 1938 2270 2467 2726 2947 3121 3182 3246
222 249 186 228 267 388 324 376 539 493 472 600 532 463 540 733 930 1068 1029 1190 1226 1180 970 970 801 1016 868 1060 646 566 1036 1240 1132 435 408 421 294 233 289 416 880 310 334 277 442 1132 1416 878 508 1032 1467 1706 1820 2096 2036 2020 2073 1837 2070 2016 2228 2299 1722 1541 1424 1242 1064 963 921 920 914 898 878 888 964 1051 1124 1186 1276 1454 1655 1848 2006 2192 2346
184 192 229 289 490 389 398 523 877 616 403 377 388 432 534 766 914 974 1076 1135 1206 1268 1284 1108 1034 874 982 802 979 660 872 1294 1187 926 953 959 601 366 285 260 476 301 281 205 309 332 650 504 578 899 1405 1879 2210 2290 2389 2304 2094 1872 2129 2266 2126 2302 2139 1974 1696 1445 1255 1074 884 765 710 618 718 742 777 813 850 870 870 874 932 1054 1220 1326 1381
213 350 422 569 575 604 699 644 476 477 508 486 480 568 584 677 848 956 885 994 996 1010 1066 1208 1337 1172 1117 988 796 800 722 721 1112 1085 1061 865 589 382 235 230 364 434 188 101 134 404 570 666 650 662 1244 1846 1860 2044 2230 2579 2236 2574 2284 1842 2256 2525 2037 2133 2164 1903 1528 1278 1110 904 556 58 68 459 718 726 732 730 727 744 750 769 808 839 877
212 342 391 417 472 566 669 639 382 400 460 418 476 496 509 522 710 653 533 648 685 618 728 953 974 912 1149 1199 810 604 541 511 791 1005 796 750 515 258 192 204 201 360 601 1283 406 441 447 455 496 546 934 1638 2033 2108 2198 2095 1917 1822 1963 1793 2614 2178 2230 2704 2240 2198 2050 1755 1407 1154 968 822 762 750 736 732 716 695 696 680 662 673 685 678 662
206 280 386 464 541 619 480 504 530 507 554 489 450 569 808 630 544 417 399 428 456 556 486 520 536 501 590 695 797 504 543 750 656 929 659 793 790 438 312 361 268 1210 1645 1545 960 311 448 424 391 435 706 1318 2013 2144 2076 1741 1828 1664 1941 2283 2754 2312 2809 3022 2470 2236 2209 2114 1777 1401 1106 921 818 776 748 714 698 693 712 738 744 748 735 695 672
376 370 448 532 698 816 886 987 978 1042 989 770 806 902 932 812 738 744 637 668 668 607 468 618 618 580 476 429 504 570 846 935 842 728 923 894 1050 787 490 489 502 650 1072 1178 712 364 449 349 380 256 279 1126 1522 1978 2096 1934 2004 2375 2134 2486 2509 2564 2814 3020 3244 2368 2163 1946 1670 1342 1044 852 764 720 702 740 813 858 865 838 822 788 742 721 688
371 401 587 556 675 809 878 1018 1299 1432 1265 998 866 1006 1034 1034 1144 1072 1007 934 839 832 859 699 576 347 308 311 372 478 597 734 796 454 436 860 1079 977 261 207 297 209 138 675 280 450 421 403 579 373 234 737 1436 1781 1804 1966 1798 2018 2514 2728 2450 2776 3044 3153 2732 2574 1749 1428 1253 1010 841 767 812 863 890 909 911 904 876 869 850 813 798 788 794
294 397 449 510 655 861 1109 1298 1451 1526 1515 1333 916 823 1013 1178 1073 1039 1056 1000 921 873 676 553 584 737 843 742 840 369 340 483 494 488 422 510 976 829 514 392 362 245 375 416 442 342 317 315 254 160 286 642 931 1132 1439 1707 1870 2320 2574 2617 2476 2780 3544 3207 2340 1970 2094 1561 1030 823 798 885 925 962 943 942 911 881 902 909 898 871 852 847 827
186 451 527 691 845 1058 1362 1452 1508 1542 1455 1338 1202 1094 1190 1144 984 888 894 908 824 456 236 265 288 356 378 369 627 794 542 38 276 459 784 291 836 922 674 306 346 178 178 846 524 467 438 313 366 380 393 488 942 1026 1097 1420 1657 1726 2288 2514 2644 3563 3170 2919 2698 2801 2184 1702 1210 913 882 894 965 965 961 954 949 971 978 986 947 910 878 827 790
244 378 490 791 1142 1458 1481 1512 1501 1518 1481 1455 1519 1513 1354 1163 1052 940 942 803 564 411 139 70 66 255 462 467 446 554 752 630 130 110 552 696 967 778 542 403 280 366 313 583 465 780 818 722 536 463 526 558 644 1112 1342 1430 1464 1819 2551 2680 2811 2800 2692 2307 1976 1988 2151 1252 1589 1137 939 966 985 1014 1057 1060 1083 1064 1035 988 923 866 804 760 720
32 132 271 374 1116 1392 1405 1482 1517 1530 1650 1731 1749 1674 1394 1178 1081 962 865 668 495 273 168 84 86 176 397 398 384 429 508 478 337 157 280 423 734 1066 848 600 388 327 274 174 574 746 726 690 843 782 794 719 771 1028 1255 1465 1468 1430 1664 2050 2346 2604 2204 2364 2248 2060 2423 2544 2193 1593 1073 1000 1067 1173 1127 1150 1065 1017 945 863 850 795 772 742 777
1 30 170 353 650 1396 1588 1622 1560 1604 1699 1758 1828 1714 1515 1162 940 799 650 563 437 311 176 56 40 88 155 162 108 97 57 97 42 15 69 227 578 852 964 577 533 387 152 146 564 678 680 619 618 486 733 821 858 1130 1328 1397 1434 1202 1279 1398 1709 1946 2392 2502 2465 2307 2191 1906 2145 2108 1998 1636 1349 900 970 961 912 912 878 873 820 819 776 821 899
0 3 42 288 552 969 1254 1464 1578 1818 1880 1932 1884 1779 1522 1108 968 808 719 638 477 271 104 70 66 57 42 28 18 16 20 25 18 16 0 20 573 1152 776 669 334 690 340 204 448 594 721 668 609 532 690 744 606 876 1089 1472 1604 1705 1380 1463 1832 1816 2206 2156 1906 2089 1545 1363 2076 1544 1714 1702 1628 1298 1006 874 845 841 906 938 884 779 764 862 999
28 143 361 490 754 1033 1298 1546 1817 1915 1872 1844 1907 1738 1142 861 876 710 680 469 363 200 92 65 32 24 14 12 7 11 21 6 2 37 0 52 65 207 362 713 905 349 176 230 257 596 573 560 680 655 535 612 330 775 823 909 1460 687 1372 1397 1041 1521 1506 1834 2188 1987 1465 1392 1477 1036 1670 1484 1527 2012 2540 2190 1523 850 744 588 382 270 324 446 612
57 194 632 900 1018 1086 1045 1180 1628 1886 1904 1928 1646 759 278 627 665 764 664 504 435 258 184 34 0 2 4 9 4 13 15 8 5 73 3 11 10 20 397 672 821 388 645 294 160 640 788 335 370 672 732 318 385 561 752 796 1019 1125 1144 998 1358 1416 1998 2236 1725 1325 908 1331 1446 2783 2615 2996 2602 2296 2314 2452 2414 1668 1780 1009 914 792 235 0 66
398 689 954 947 852 969 1104 1290 1558 1768 1868 1933 1351 545 397 345 706 742 646 491 408 375 242 46 2 1 1 0 0 16 30 24 10 5 10 70 6 0 0 0 34 220 503 677 82 944 842 749 284 277 254 193 313 638 906 762 972 1078 1018 1434 1717 1720 1733 1282 675 699 1588 1668 2370 2639 2834 2543 2997 2802 2111 1759 2539 2845 2230 1869 1446 748 553 425 0
358 442 564 722 950 1216 1337 1343 1401 1615 1712 1645 1304 694 483 484 472 812 555 496 492 448 218 68 8 0 1 1 8 13 35 31 19 18 8 178 167 118 49 0 0 0 14 92 58 934 1114 422 483 264 301 94 308 675 450 624 727 997 1261 1287 2127 1855 1584 1092 1197 1446 1796 2769 2509 2256 2234 3032 3267 2820 2915 2963 2587 2495 2306 1726 1331 1245 1076 970 803
246 507 605 626 913 1102 1287 1272 1196 1158 1290 1477 1354 996 544 463 533 559 659 472 444 420 325 205 42 12 6 2 0 1 19 20 24 16 9 7 0 50 26 38 10 0 0 0 0 78 764 630 282 444 629 533 511 594 138 584 1048 967 1086 1248 1674 1647 1222 826 940 1130 1906 2512 1324 2288 1743 1950 2902 2556 2328 2538 2382 2244 1867 1169 1017 990 952 874 861
329 474 575 654 957 1115 910 926 1039 1205 1370 978 1238 1086 690 635 686 519 698 408 435 396 431 350 118 66 34 19 9 3 16 14 17 9 2 2 2 1 0 0 0 0 0 0 0 16 2 268 300 194 267 717 317 345 831 894 790 1056 1192 1466 1913 1498 982 460 852 715 1162 1490 1428 1381 2054 1438 2116 2102 1888 1968 1957 2102 2022 2196 942 737 753 817 789
264 422 584 669 805 872 770 641 708 805 708 914 1150 1035 712 687 686 547 746 573 641 524 474 430 278 159 98 61 50 36 24 2 0 0 1 1 0 1 2 1 1 1 0 73 32 3 2 12 78 252 342 364 180 382 947 1072 864 1469 1546 1633 1439 956 1286 666 791 1189 2116 2685 2000 1913 1622 1345 2081 1735 1594 1573 1800 1729 1698 1238 1012 783 682 676 798
423 525 547 707 947 1147 975 784 661 674 547 964 1316 1249 846 600 715 652 647 686 894 810 608 444 394 302 207 163 111 100 68 32 17 2 0 0 0 3 4 1 1 2 4 17 53 7 30 123 162 172 189 118 88 498 1170 1017 556 1128 1263 1662 1678 1917 2114 1911 1967 1222 1310 1245 1724 1590 1157 969 1610 1664 1488 1367 1399 1396 1190 1439 981 694 629 683 814
316 240 254 254 503 888 960 872 560 686 905 1450 1267 1300 1103 754 666 938 438 479 777 904 936 714 529 392 264 212 166 152 102 64 40 24 0 0 1 4 4 2 6 5 3 6 4 0 0 0 0 0 0 0 0 0 46 0 160 851 909 778 941 1233 793 702 371 647 828 922 1783 818 1032 852 1425 1722 1382 1362 1627 1356 1284 1228 1814 762 585 616 762
310 239 178 234 503 698 640 624 570 790 510 477 1118 1236 1115 964 826 1167 962 541 759 1030 1142 1102 842 476 401 306 244 213 152 152 82 54 23 4 6 3 5 4 3 6 8 6 130 108 0 0 0 0 0 0 0 0 0 0 19 127 1057 739 848 568 586 575 817 502 208 436 988 1001 1106 988 1683 1584 1409 1236 1509 1150 1107 1125 1153 918 708 601 501
342 572 296 387 540 788 569 336 334 253 424 372 752 983 1098 1127 1012 1482 1375 1032 1074 1098 1076 1366 1078 615 450 416 257 176 186 173 119 81 38 15 10 2 8 4 2 5 5 19 118 314 178 3 0 0 0 0 0 9 46 0 0 3 334 288 523 396 478 886 465 728 325 233 938 1188 1012 1143 1328 1786 1393 1442 1492 1462 1178 1288 1062 701 592 562 437
Wind_Speed
13 15 16 17 18 18 19 18 17 16 13 12 12 10 13 15 16 15 15 15 14 14 14 12 10 10 15 21 23 22 21 20 18 17 16 15 14 14 15 10 6 5 4 3 3 3 4 4 3 3 2 2 2 3 4 5 6 7 7 8 8 8 8 8 8 8 7 7 7 7 8 9 10 10 11 11 12 12 13 14 14 15 15 16 16
12 14 16 16 17 18 20 20 21 20 17 15 14 12 12 15 17 17 17 17 15 16 16 15 12 11 12 16 22 23 23 21 20 19 18 16 15 14 15 12 9 7 6 5 5 4 3 4 4 4 3 3 3 2 2 3 4 5 6 6 7 8 8 8 8 8 8 8 8 8 9 10 10 11 11 12 12 13 14 15 15 16 16 17 16
12 13 15 16 17 17 18 21 22 21 21 20 16 13 15 16 17 18 18 16 15 18 18 18 16 14 13 14 17 23 24 23 22 21 19 18 17 15 14 13 11 9 7 7 7 6 5 4 4 4 4 3 3 3 3 3 3 4 5 5 6 7 7 7 8 8 9 9 8 8 8 9 11 11 12 12 13 14 14 15 15 16 17 17 16
11 13 14 16 17 18 19 21 22 23 21 19 14 16 17 16 16 16 17 17 18 18 20 20 19 17 17 15 14 18 23 25 23 22 21 21 19 18 15 16 12 11 10 9 8 7 7 6 6 5 5 5 3 3 4 3 3 3 4 4 5 5 6 7 7 8 9 9 9 9 9 10 10 11 12 13 13 14 14 15 15 16 17 17 17
13 14 15 18 20 21 22 24 25 24 25 22 13 11 15 14 15 16 17 18 18 19 20 21 21 21 20 18 16 15 18 23 25 24 23 21 20 19 17 16 15 15 12 12 10 10 9 8 7 7 7 6 5 4 3 3 3 2 3 3 3 3 4 6 7 8 8 8 9 9 9 10 10 11 12 13 14 14 14 15 15 16 17 17 18
21 20 21 23 25 25 24 26 27 28 27 27 21 15 13 14 13 15 17 18 18 19 21 22 26 23 23 21 19 17 15 18 22 24 24 22 22 21 20 19 18 19 18 14 13 12 11 10 9 9 8 8 7 5 4 3 2 2 2 2 2 1 3 5 6 7 6 6 8 9 9 9 10 11 11 12 13 14 14 14 14 15 16 17 18
23 24 25 26 24 25 25 25 26 27 26 26 24 19 17 14 14 15 16 18 20 22 23 25 27 29 25 24 21 19 16 14 17 21 23 23 23 22 22 22 20 20 19 21 18 14 14 13 12 11 10 10 8 7 5 4 3 2 1 1 1 0 1 3 4 5 4 5 7 8 9 9 10 10 11 12 13 13 14 14 14 14 15 16 18
22 24 26 27 26 23 22 26 27 27 27 24 23 23 22 19 14 15 15 16 20 23 26 29 31 30 30 26 23 21 18 16 14 17 20 23 23 23 24 24 23 22 22 21 22 20 15 15 14 13 12 11 10 9 7 6 5 3 2 1 1 1 0 1 2 3 4 4 5 6 8 9 10 11 11 12 12 13 13 13 13 13 14 15 16
25 26 25 27 27 24 20 23 26 27 24 22 22 22 23 21 20 18 14 17 20 21 25 28 28 30 31 28 25 25 20 18 16 15 17 20 22 23 24 25 25 24 24 23 23 23 22 17 16 15 14 13 12 11 9 7 6 6 4 3 2 1 1 1 1 1 2 3 4 5 6 8 10 11 12 12 12 12 12 13 13 13 13 13 14
25 28 26 25 25 23 21 22 24 25 23 22 22 24 25 26 23 22 20 21 20 20 24 28 29 27 28 28 28 28 25 24 18 16 16 17 20 21 23 26 27 26 26 25 24 24 25 23 19 17 16 16 15 14 12 11 9 8 7 5 3 2 2 3 2 1 1 2 3 3 4 5 7 8 9 10 11 11 11 11 11 11 12 11 12
23 27 27 25 25 24 23 21 24 24 21 21 22 22 22 24 23 20 21 24 22 21 22 27 30 28 26 28 30 28 30 26 21 17 17 16 17 20 21 23 26 27 28 28 27 26 25 26 25 23 21 17 16 15 14 13 12 10 8 6 4 3 3 3 3 3 1 1 1 2 3 4 5 7 8 8 9 10 10 10 10 10 11 11 11
25 27 28 28 27 25 23 22 23 23 22 21 21 22 23 22 22 20 18 22 23 23 24 26 29 26 23 26 28 29 29 28 25 20 17 17 17 19 20 22 24 26 27 29 29 28 27 26 27 27 24 23 18 17 15 15 14 12 10 8 6 5 5 4 4 3 2 2 1 1 1 3 4 5 7 7 7 8 8 9 9 10 10 10 11
26 27 27 27 27 26 24 23 23 24 23 22 21 21 21 22 21 23 21 20 22 24 24 27 26 23 23 20 23 26 26 25 23 24 22 18 19 19 19 20 21 24 27 29 30 30 30 29 28 26 28 27 25 19 18 17 16 15 12 9 7 6 6 5 4 4 3 2 1 0 1 2 4 5 6 7 7 6 7 7 8 9 9 10 10
26 27 27 27 27 28 27 26 25 26 25 23 21 20 19 19 20 20 23 20 20 22 28 31 27 25 29 27 24 25 26 26 23 23 21 20 19 19 20 19 19 21 25 27 29 30 30 30 29 27 27 26 27 30 26 22 19 15 14 12 9 7 6 5 4 3 3 3 2 2 1 1 3 4 5 6 7 6 6 7 7 8 9 9 10
24 25 27 26 26 25 27 28 27 26 26 25 22 20 22 21 20 23 24 24 22 21 24 29 27 31 32 31 27 28 29 28 27 25 22 21 22 19 20 19 18 20 22 24 25 28 29 29 29 29 28 27 27 29 29 26 24 20 17 14 12 9 6 6 4 3 3 3 3 2 2 1 2 3 4 6 6 6 6 7 7 8 8 9 9
24 24 25 26 26 26 25 25 26 27 26 26 24 22 23 24 24 24 24 21 23 23 25 26 28 35 37 33 32 35 30 31 32 31 27 20 21 20 22 22 21 20 21 20 21 24 27 28 28 30 30 30 29 29 28 30 26 23 20 17 14 12 9 7 5 4 4 3 3 3 2 1 1 2 4 5 6 6 7 7 8 8 8 9 9
24 23 23 24 25 25 25 26 27 27 27 26 25 24 24 26 26 27 26 25 22 24 26 28 28 31 35 41 38 36 31 33 36 34 28 25 21 20 22 23 23 25 23 21 21 22 24 25 28 30 31 31 31 30 29 29 29 28 26 24 18 15 12 10 7 5 5 4 3 3 3 2 1 1 3 4 5 6 6 7 7 8 8 8 8
25 25 24 24 25 25 25 26 26 27 27 26 26 25 26 27 28 28 26 26 25 23 23 28 30 29 29 31 36 37 36 37 37 35 36 28 28 27 25 24 25 27 27 25 24 23 23 24 26 28 29 31 32 32 31 30 30 31 30 28 23 19 16 13 10 7 6 5 4 3 4 3 2 2 2 3 4 5 5 6 6 7 8 8 8
24 25 25 25 25 26 27 26 27 27 28 28 28 26 27 28 31 31 29 29 28 26 23 26 31 30 29 27 26 29 32 38 39 38 34 33 30 30 30 26 24 26 27 26 25 25 23 23 23 24 27 30 32 33 33 31 27 28 29 28 28 24 20 16 13 11 8 7 5 4 4 5 5 3 2 2 2 3 4 4 5 5 6 7 7
27 27 27 28 29 31 32 31 30 29 29 27 29 28 29 30 31 31 32 33 31 29 26 27 28 28 30 28 26 26 28 29 31 36 37 38 36 33 32 32 29 27 27 27 25 25 24 24 24 24 26 27 30 32 33 32 31 30 30 29 30 30 24 20 17 14 12 9 7 6 6 5 6 5 4 2 2 2 2 3 4 4 5 6 7
29 30 31 32 34 36 36 36 33 31 33 31 29 28 29 30 31 31 31 33 34 31 28 26 25 26 31 28 24 26 28 30 34 41 41 37 33 31 32 33 31 28 28 27 27 27 24 23 27 25 24 24 26 29 32 33 33 31 29 30 31 29 29 25 21 17 15 12 10 9 7 6 6 5 6 6 5 2 2 2 3 4 4 5 6
30 33 34 34 35 36 38 38 37 32 31 33 29 30 30 30 29 28 27 30 33 31 28 27 31 34 32 29 25 21 25 32 36 39 35 29 32 36 34 35 33 31 31 30 26 26 27 29 28 25 23 22 23 25 28 31 33 33 30 31 33 31 28 26 23 20 16 14 13 12 10 8 7 7 6 5 5 5 5 4 4 4 5 5 6
32 34 35 37 38 38 38 37 35 35 32 29 30 31 32 31 30 28 28 30 30 28 26 24 26 30 28 29 24 24 24 26 30 35 35 35 36 33 37 37 34 32 33 32 30 25 26 29 28 26 24 22 21 23 25 29 30 31 30 32 33 34 31 26 23 20 17 15 14 14 12 10 9 8 7 6 5 5 5 6 6 6 5 5 6
35 37 38 39 39 41 40 38 36 32 30 28 27 27 28 28 29 30 28 26 27 27 27 25 24 30 32 33 32 30 27 26 26 29 33 36 35 33 39 42 39 35 35 38 34 28 26 29 29 27 25 24 23 23 24 26 29 29 31 30 33 34 33 28 25 21 18 16 15 14 13 12 11 9 8 7 6 5 5 4 6 6 7 6 6
36 37 39 39 41 41 41 39 36 33 30 28 26 26 28 30 29 26 27 30 30 26 29 26 25 27 31 35 34 34 29 25 25 25 32 38 40 41 38 40 42 41 38 38 38 33 29 34 32 29 28 25 24 25 25 26 28 31 31 31 31 33 34 31 27 23 20 17 16 14 14 14 13 12 11 9 9 8 7 6 5 6 6 6 6
35 36 38 39 41 42 41 39 36 33 30 27 26 27 27 28 27 26 24 27 32 29 27 24 22 25 27 30 31 32 33 30 24 31 33 34 36 39 39 41 41 40 44 42 39 37 35 36 34 33 31 27 26 26 27 26 27 29 33 32 32 33 33 32 28 26 23 20 18 16 15 15 14 13 13 11 10 10 9 8 8 7 7 7 8
35 36 37 38 39 40 40 39 36 34 32 30 30 29 29 29 29 27 27 27 28 29 29 28 27 27 28 31 31 30 34 35 34 33 31 28 29 32 37 40 40 42 43 44 42 38 36 39 37 35 33 31 29 27 26 27 26 28 34 34 33 32 33 31 30 28 26 23 21 18 17 16 15 14 14 13 12 12 11 10 10 10 10 10 10
35 36 37 38 38 38 38 37 35 34 33 33 32 31 29 28 28 27 26 28 28 28 29 28 28 28 28 31 34 30 29 35 37 34 32 29 29 27 30 34 42 43 45 41 42 40 36 36 36 35 36 35 33 31 27 25 26 26 32 34 33 32 32 32 31 29 27 25 23 21 19 18 16 16 15 15 14 13 13 12 12 12 12 13 13
36 36 36 37 37 36 36 35 35 34 33 34 33 32 30 28 27 26 26 26 26 28 30 31 31 31 31 29 33 34 28 32 35 35 33 33 30 27 29 36 43 43 43 41 39 39 39 37 34 34 36 37 37 36 32 28 26 26 30 32 31 30 33 33 33 31 30 28 26 23 21 20 19 18 18 17 16 15 14 14 14 14 14 15 15
36 36 36 36 35 34 34 33 33 33 33 34 34 32 30 30 28 26 27 27 27 27 28 30 32 34 33 32 33 32 30 31 32 34 35 34 34 31 31 34 34 35 37 37 36 39 41 40 34 32 36 38 38 38 35 30 27 26 28 29 30 30 30 35 34 34 33 30 28 25 24 nan nan 22 21 19 18 17 16 16 16 16 16 16 16
36 36 36 35 34 32 31 31 32 31 32 33 34 33 31 30 30 28 27 27 27 26 26 27 31 34 34 32 32 31 30 30 31 34 35 38 36 34 33 28 24 28 35 40 36 37 39 38 35 30 36 38 39 39 37 32 29 25 27 27 31 29 32 37 36 36 34 32 29 26 25 26 25 25 24 23 21 20 18 18 19 19 19 18 18
36 36 36 35 32 29 29 29 28 30 31 32 32 32 32 32 31 30 28 27 27 28 28 28 30 32 32 33 34 33 33 34 31 31 34 37 37 34 36 31 24 31 39 40 35 34 41 40 39 37 32 36 39 39 36 34 30 30 29 29 32 33 35 34 37 35 35 32 30 28 28 28 28 28 27 26 24 23 22 22 21 21 20 19 19
37 37 37 35 32 30 28 28 28 29 30 30 32 32 33 33 33 32 30 29 28 29 31 30 30 30 31 33 34 33 33 33 32 32 35 37 39 38 38 36 31 30 33 37 35 37 44 42 38 36 34 36 36 37 37 34 31 31 30 30 32 33 34 33 36 37 34 33 32 32 32 31 31 30 29 28 27 26 25 23 22 22 21 20 20
38 38 37 35 34 30 29 28 28 29 29 31 32 33 34 34 33 34 33 30 29 29 31 32 32 32 30 30 32 34 34 32 33 33 33 36 38 37 38 34 30 26 28 36 35 39 39 41 39 36 33 34 34 35 36 34 31 31 29 30 32 32 33 35 35 38 35 33 34 34 34 34 33 32 30 29 28 28 27 25 24 23 22 22 22
37 38 37 36 34 32 31 30 30 31 32 33 34 35 36 35 34 33 32 30 29 28 29 29 30 31 31 30 31 34 36 33 33 34 33 32 37 37 36 37 31 25 27 35 36 35 37 37 38 37 36 35 32 33 35 36 34 32 28 27 29 31 35 36 36 37 39 34 35 35 35 36 35 33 32 30 30 29 28 26 25 25 24 24 24
37 38 37 36 35 34 32 31 31 32 33 35 36 37 37 35 33 32 31 30 28 26 25 25 25 28 29 29 30 32 34 nan 34 35 36 35 38 40 38 38 37 24 25 38 38 36 38 38 39 39 38 35 35 34 38 38 34 31 29 28 28 30 33 35 36 36 40 35 36 36 36 36 35 34 32 31 30 29 28 27 27 27 26 26 25
38 38 38 37 36 35 35 33 32 33 35 36 37 38 37 35 33 32 31 29 27 25 24 nan nan 22 25 27 28 29 32 34 33 34 38 36 37 39 41 42 39 29 24 35 40 39 39 39 40 41 40 38 38 38 38 38 36 32 30 27 27 29 32 32 33 34 38 37 35 36 36 35 34 33 32 31 29 29 28 28 28 28 27 26 25
nan 39 38 37 37 35 35 35 34 34 36 38 39 38 36 35 33 31 31 29 27 25 25 nan nan 22 23 27 28 29 30 33 35 34 36 37 37 38 39 42 41 34 24 28 40 41 39 40 42 42 42 39 39 38 37 37 37 35 31 27 27 29 30 29 30 34 38 41 40 40 38 36 33 31 30 30 29 29 29 29 29 28 26 25 23
nan nan 37 36 36 36 36 37 36 35 36 38 39 38 35 33 32 31 30 29 27 28 27 nan nan nan 22 25 29 nan nan nan nan nan nan 36 39 37 39 39 39 36 29 26 37 41 40 40 41 41 42 40 39 39 39 38 37 36 34 32 27 26 29 29 32 35 35 32 29 34 36 35 33 33 31 28 29 28 29 30 28 26 24 23 22
nan nan nan 35 35 36 37 38 37 37 38 38 38 36 33 31 31 30 29 29 27 27 26 nan nan nan nan nan nan nan nan nan nan nan nan nan 40 40 41 42 39 39 33 29 34 40 41 40 41 41 42 42 40 39 41 41 38 36 35 34 31 29 32 31 29 34 34 29 27 29 31 35 36 33 33 30 28 29 29 28 25 23 22 21 21
nan 37 35 35 35 36 37 38 38 38 38 37 36 35 31 29 30 29 28 27 25 26 nan nan nan nan nan nan nan nan nan nan nan nan nan nan nan 45 43 42 42 42 38 31 32 38 39 38 40 43 43 42 38 38 38 39 38 34 34 33 33 34 35 32 31 33 33 27 27 27 28 29 31 34 37 36 34 30 28 25 24 22 19 20 20
nan 37 36 36 36 36 36 37 38 39 38 36 40 39 30 27 28 28 27 26 26 25 23 nan nan nan nan nan nan nan nan nan nan nan nan nan nan nan 44 44 42 39 41 38 32 35 38 36 36 40 43 42 40 36 37 38 38 37 35 34 32 34 36 34 35 32 27 24 24 29 30 32 32 33 33 33 33 34 30 30 25 23 22 nan nan
38 37 37 36 35 36 36 36 38 38 36 34 41 35 31 27 27 26 25 24 25 25 24 nan nan nan nan nan nan nan nan nan nan nan nan nan nan nan nan nan nan 39 38 34 nan 35 39 38 38 40 38 38 38 36 37 38 38 36 35 34 34 36 36 34 29 29 26 24 26 31 30 30 32 31 31 30 30 32 31 27 27 21 21 20 nan
38 37 36 36 36 37 38 37 36 35 31 36 38 34 28 27 28 26 24 24 25 24 22 nan nan nan nan nan nan nan nan nan nan nan nan 40 41 44 nan nan nan nan nan nan nan 33 37 37 40 38 38 nan 39 38 38 39 38 37 36 34 36 36 36 34 30 28 29 30 33 31 31 33 32 31 32 32 32 32 30 32 30 24 22 22 19
37 36 35 35 36 36 37 36 34 31 27 37 36 32 28 27 27 26 25 24 24 24 21 19 nan nan nan nan nan nan nan nan nan nan nan nan nan nan nan nan nan nan nan nan nan nan 35 37 36 38 36 35 37 40 39 38 41 38 37 35 36 37 36 35 33 33 33 32 29 31 31 32 31 32 31 32 32 32 31 33 30 27 23 21 19
37 35 35 34 35 35 35 33 31 28 24 33 31 31 28 27 27 27 25 23 24 24 21 17 15 nan nan nan nan nan nan nan nan nan nan nan nan nan nan nan nan nan nan nan nan nan nan 30 32 32 32 33 34 36 38 40 37 38 39 38 38 36 38 35 34 32 31 32 30 32 32 30 29 31 30 31 32 32 29 32 29 26 22 20 20
36 35 35 33 33 32 32 31 27 25 26 32 27 30 28 27 26 26 25 25 25 25 22 18 15 15 nan nan nan nan nan nan nan nan nan nan nan nan nan nan nan nan nan nan nan nan nan nan nan 30 32 29 28 32 37 39 37 37 40 38 37 34 35 35 33 33 37 37 33 33 29 30 33 29 28 29 30 30 28 33 28 25 21 22 21
37 35 33 31 30 30 31 28 23 23 23 33 29 30 29 28 27 26 24 24 25 25 24 21 17 15 14 11 11 16 nan nan nan nan nan nan nan nan nan nan nan nan nan nan nan nan nan 23 25 27 28 25 nan 31 35 37 32 34 42 44 44 40 42 43 42 41 36 33 29 30 29 29 30 28 27 28 30 29 27 26 28 26 26 24 24
34 33 30 29 29 29 28 25 21 20 21 29 31 30 31 30 28 25 23 24 25 25 25 25 20 13 12 9 8 16 20 nan nan nan nan nan nan nan nan nan nan nan nan nan nan nan nan nan nan nan nan nan nan nan nan nan 38 35 40 41 41 40 41 40 38 35 36 34 31 27 29 28 29 28 28 30 30 28 27 26 30 30 30 28 26
30 29 27 26 24 23 21 20 18 17 17 23 33 31 31 32 28 24 23 23 24 24 26 28 26 18 12 12 6 12 21 22 nan nan nan nan nan nan nan nan nan nan nan nan 26 29 nan nan nan nan nan nan nan nan nan nan nan 29 35 36 39 40 37 35 35 35 37 34 32 30 30 28 30 29 30 31 30 28 27 27 29 35 35 34 31
31 31 29 27 24 23 17 16 19 17 14 20 35 31 31 30 30 26 24 23 23 24 25 27 27 21 14 12 8 5 16 21 23 nan nan nan nan nan nan nan nan nan nan nan 22 23 28 nan nan nan nan nan nan nan nan nan nan nan 32 33 37 39 38 38 38 36 37 35 33 31 30 31 30 31 32 32 29 29 27 27 28 32 33 32 34
Wind_Direction
285 283 281 284 287 289 286 286 285 281 274 277 279 255 258 255 251 247 250 253 255 264 267 263 266 268 247 236 236 235 231 228 228 233 234 236 238 246 266 264 249 238 234 212 203 183 208 255 236 273 290 334 13 49 53 50 45 38 31 24 20 18 18 18 20 22 24 28 35 48 54 55 55 55 58 61 65 67 69 72 73 73 73 76 79
280 277 275 275 279 284 290 293 291 286 281 276 276 271 264 258 254 251 245 242 250 260 266 265 266 270 267 247 240 236 236 231 228 227 230 235 235 231 270 263 261 248 239 235 227 224 209 235 244 253 286 315 336 358 48 54 53 49 39 31 27 24 24 22 23 26 27 29 32 42 52 55 54 52 53 58 62 65 69 72 73 73 75 77 81
269 268 271 272 273 281 290 297 297 290 285 276 268 286 270 260 260 262 260 260 257 255 262 269 271 269 271 266 248 240 237 235 230 228 227 231 231 232 244 277 262 256 248 245 241 243 241 236 249 251 273 298 319 329 357 40 48 54 48 38 30 28 27 24 25 31 33 34 35 42 51 53 51 49 50 54 58 61 65 71 74 75 75 77 80
270 271 277 281 283 286 290 296 296 285 277 267 278 289 277 259 253 252 258 260 256 259 263 269 269 267 268 268 261 248 242 239 237 233 225 223 228 231 233 248 266 262 258 251 249 249 251 256 250 254 262 280 302 319 334 1 31 50 59 46 33 27 29 29 29 32 37 38 38 42 47 51 50 49 51 54 57 59 61 67 72 74 76 78 78
305 302 297 295 296 299 301 300 302 300 283 271 255 276 286 272 258 249 255 260 262 261 263 266 271 268 262 261 264 257 247 242 240 236 231 227 227 228 231 239 246 276 268 259 252 250 256 261 262 259 262 271 285 305 323 336 1 26 57 59 41 21 20 23 26 31 39 42 43 45 47 50 53 51 53 57 60 61 61 64 68 70 73 75 76
325 319 308 302 302 303 304 307 303 296 296 284 268 263 274 283 270 258 256 258 262 266 266 266 259 261 259 255 258 261 255 248 244 240 238 231 227 229 232 235 238 246 254 269 259 256 256 262 266 263 259 265 273 283 299 314 332 358 36 63 61 27 15 17 22 25 29 38 49 52 51 51 55 56 58 62 66 64 64 65 67 69 71 73 74
325 316 310 305 305 304 299 297 293 289 291 287 278 274 265 258 273 272 266 268 269 272 273 273 271 264 266 257 250 257 261 256 248 243 239 236 233 232 233 234 236 239 244 248 264 263 258 259 264 262 262 261 265 274 283 290 300 311 357 38 74 55 6 12 15 18 13 31 49 54 56 56 60 63 65 70 69 67 65 66 66 67 69 71 73
321 315 315 316 315 311 300 290 289 291 294 288 279 280 283 282 274 272 278 283 281 279 277 274 273 270 264 259 254 251 255 258 255 246 240 238 236 234 235 237 237 237 239 242 245 256 267 263 263 265 261 261 262 265 270 274 274 278 271 265 227 154 187 340 347 353 4 27 45 58 64 64 64 66 67 69 74 74 68 65 66 66 65 67 69
317 313 324 331 325 314 303 301 299 296 296 290 279 277 281 279 276 273 271 283 287 287 283 280 276 274 271 267 258 255 251 254 257 250 240 234 234 233 237 239 240 239 239 239 241 242 268 270 267 262 262 257 256 259 261 261 269 263 258 249 232 206 205 245 288 321 353 25 33 54 68 73 71 68 67 66 67 71 70 67 65 65 63 62 63
331 325 329 334 331 324 314 308 304 302 300 295 285 280 278 279 281 287 294 284 278 283 286 283 278 273 267 261 256 252 251 245 244 247 241 235 235 235 234 240 245 247 245 243 241 243 244 263 266 265 260 257 254 253 254 252 252 254 257 253 238 218 202 218 229 251 332 25 36 46 59 74 78 75 69 67 69 70 68 67 63 62 62 60 56
331 328 327 328 321 321 319 317 310 307 302 297 294 292 293 293 297 302 301 299 294 284 282 279 277 275 267 260 254 250 249 252 244 241 246 242 238 237 239 242 244 246 247 245 244 242 242 244 251 247 246 261 256 254 252 251 247 247 249 252 246 229 207 205 217 215 189 184 148 101 107 90 82 83 76 68 63 65 67 66 63 59 60 58 58
324 325 328 323 324 324 323 320 314 311 310 309 309 309 316 323 319 315 312 298 292 285 279 275 271 271 269 262 258 253 248 248 249 249 244 246 245 246 245 246 247 247 248 247 245 245 245 244 245 248 243 251 263 255 255 252 249 247 249 249 247 233 218 205 208 215 191 186 187 144 75 90 88 82 83 77 66 60 60 62 63 62 59 59 58
320 322 324 324 323 322 322 321 317 314 314 315 319 320 318 316 316 312 312 304 296 290 284 277 271 269 272 267 261 259 255 253 249 250 247 245 251 253 252 248 248 250 247 246 246 246 245 246 244 244 248 244 249 262 261 255 251 249 248 247 247 243 229 213 205 214 208 204 217 197 77 82 83 77 77 76 73 62 54 55 56 55 54 55 54
320 320 322 322 320 319 319 318 315 313 313 313 312 311 310 307 303 301 300 304 301 296 289 281 272 271 271 268 263 262 260 254 249 252 251 247 252 255 255 253 251 250 248 248 247 246 246 246 246 245 245 245 247 253 249 251 252 255 250 247 244 246 243 231 215 211 211 203 191 217 183 100 81 80 74 72 67 61 53 48 45 43 43 45 46
320 321 321 322 321 319 317 316 316 313 310 309 310 311 306 305 307 304 299 304 303 296 292 291 274 274 272 265 262 257 256 255 248 245 244 250 254 253 257 258 254 248 247 247 248 248 247 246 247 246 245 244 245 249 250 249 249 259 260 249 242 244 246 247 243 225 222 210 192 192 203 132 69 65 72 70 66 62 54 47 45 41 38 38 39
320 321 321 323 323 322 318 315 314 311 309 307 307 308 305 304 304 304 306 306 302 298 295 290 280 274 269 270 264 259 250 258 255 251 250 247 256 254 257 255 253 252 248 246 247 248 249 248 247 248 246 244 243 244 245 248 251 253 262 261 252 242 237 237 237 234 231 227 215 205 205 201 61 55 65 65 66 64 56 49 46 43 40 38 38
322 324 324 326 325 323 320 316 314 312 309 306 305 305 304 303 302 302 305 304 299 293 293 293 291 280 266 264 265 262 259 254 252 250 252 252 258 254 254 256 251 254 253 249 245 245 249 250 249 248 249 246 243 242 241 242 244 245 251 260 260 251 242 237 230 225 228 228 226 227 232 238 293 14 49 64 63 62 58 50 45 42 41 38 36
324 325 326 326 327 325 322 319 314 310 308 306 303 302 303 301 299 297 300 299 296 291 288 287 287 288 281 268 260 255 254 253 251 248 243 242 250 255 252 254 255 255 254 255 252 246 247 249 250 250 249 248 245 243 241 241 241 239 239 245 261 255 249 243 238 234 232 230 232 240 247 255 266 314 18 55 51 54 57 52 45 40 38 38 36
320 319 320 323 323 323 323 319 312 305 303 301 298 297 293 292 292 295 295 290 290 289 289 281 280 287 287 278 267 256 247 247 253 249 248 252 250 250 249 252 253 257 257 256 255 254 251 254 255 253 251 248 246 245 242 240 241 240 240 240 251 257 253 248 242 240 241 240 235 234 244 257 268 285 323 360 39 55 49 47 43 36 31 31 30
315 315 316 316 317 319 320 317 313 306 297 297 293 293 290 287 286 290 291 291 290 287 280 278 280 280 282 280 275 262 254 250 248 250 247 246 246 244 246 246 245 248 253 257 257 256 255 255 258 258 253 251 248 245 244 241 240 240 238 241 240 248 252 249 246 242 244 247 244 240 244 256 268 277 291 350 354 31 31 26 29 23 18 18 21
311 310 309 312 314 317 317 314 313 314 308 303 303 301 297 291 289 286 288 288 287 284 283 282 279 279 276 276 273 266 260 256 251 250 249 247 245 247 242 243 242 243 247 254 256 257 259 257 257 257 257 255 251 248 245 243 240 239 238 243 245 245 246 247 246 242 243 248 251 251 248 256 271 280 283 292 293 326 353 356 359 5 360 360 15
311 310 310 311 311 314 316 317 317 316 314 312 309 301 292 291 291 291 288 285 283 282 281 275 269 262 259 257 256 270 267 256 255 257 252 245 238 239 240 242 243 246 247 244 247 251 253 254 256 258 258 257 254 250 248 246 242 240 239 242 244 247 246 245 245 243 240 243 249 254 256 259 264 274 284 294 302 308 315 325 342 346 338 338 350
312 312 311 312 313 315 314 313 312 309 308 311 311 308 304 298 293 286 287 288 283 280 276 274 272 272 268 263 266 273 270 260 258 261 253 241 237 232 236 240 238 240 251 252 246 244 250 254 253 255 258 259 255 251 249 248 246 242 238 242 243 243 246 246 244 244 240 240 246 252 257 259 262 267 276 282 292 302 318 320 324 331 341 337 333
314 313 314 312 315 316 315 313 313 312 311 310 306 300 297 295 292 290 288 288 283 275 272 272 267 264 265 263 259 259 258 249 249 255 251 241 238 232 235 240 241 241 245 251 247 244 251 257 256 255 256 257 259 256 251 248 246 246 240 241 240 239 241 243 243 242 241 241 244 249 254 257 258 259 263 272 279 290 299 314 314 321 326 337 340
313 314 314 314 316 317 314 311 309 309 309 308 308 306 304 302 298 301 297 293 288 280 272 269 267 261 260 262 259 255 253 253 245 250 251 243 237 234 230 236 241 243 245 248 247 246 250 256 256 257 255 255 257 260 258 253 246 249 248 237 242 239 236 236 239 239 239 240 244 247 251 253 255 253 254 255 259 268 279 294 304 306 315 318 319
313 313 313 314 316 316 314 310 307 307 307 306 304 303 301 300 300 297 293 289 287 285 280 269 268 266 259 257 258 255 252 250 248 246 245 241 240 243 239 237 238 238 242 244 243 241 246 254 258 258 258 255 255 258 261 257 249 247 250 239 239 241 236 234 235 236 236 238 241 244 248 253 254 254 253 252 255 260 267 278 287 295 303 307 307
313 312 312 314 316 317 314 310 305 303 303 304 304 304 301 300 299 297 292 287 283 281 281 280 269 264 258 250 250 253 251 250 251 250 249 245 236 238 244 241 236 236 236 239 240 241 242 249 254 257 260 257 254 254 257 257 250 244 249 245 235 238 240 235 234 236 236 237 240 243 247 251 254 256 257 256 256 260 266 273 278 284 289 292 295
313 313 312 315 317 318 315 309 305 300 300 303 304 304 303 303 304 302 295 287 281 277 270 266 265 260 258 255 250 247 249 249 252 253 249 244 240 233 235 235 236 234 235 236 238 237 242 242 247 253 257 258 256 253 254 255 249 246 246 241 240 236 241 239 237 236 238 238 240 243 247 249 252 255 258 259 259 261 265 269 274 279 283 285 287
313 312 312 315 319 320 317 311 304 299 300 302 305 306 307 309 310 308 305 297 287 277 270 265 262 259 259 258 256 255 249 247 248 248 244 244 243 237 232 232 234 236 235 237 238 234 238 240 239 251 257 255 255 253 251 252 250 244 240 241 241 237 240 245 239 237 237 238 239 242 246 249 251 254 256 258 260 262 265 269 273 277 280 283 287
312 312 312 316 320 322 318 312 304 301 298 300 302 304 307 312 311 309 305 302 295 285 276 268 263 261 260 257 255 253 250 244 243 246 244 242 243 241 235 230 232 236 236 235 233 235 236 240 240 244 254 252 253 252 249 250 251 246 239 237 240 240 240 245 242 239 237 236 238 240 245 nan nan 252 254 255 258 261 265 270 275 280 281 284 285
313 313 314 316 320 320 317 312 306 302 301 302 302 302 304 309 310 307 302 295 290 286 282 274 266 262 259 256 255 253 250 247 242 242 240 242 239 238 232 225 233 242 235 236 231 230 235 235 236 239 244 249 250 251 249 249 250 246 240 236 238 238 239 243 244 242 238 238 239 242 245 247 248 250 251 253 256 261 264 268 273 276 280 281 283
313 314 315 318 320 320 317 312 307 305 303 301 300 299 301 305 307 306 299 290 284 280 279 276 270 262 254 251 251 248 249 250 246 244 240 239 240 235 235 233 233 242 239 238 234 223 235 233 229 236 244 241 245 249 248 246 251 257 241 236 237 239 242 237 248 245 243 241 243 245 247 248 249 250 250 253 256 258 262 265 269 273 277 280 282
314 315 317 319 322 321 319 316 311 307 304 302 300 298 301 304 306 306 301 293 284 279 276 275 271 265 256 249 247 246 244 242 246 248 242 240 242 238 236 236 232 234 241 241 235 224 225 230 231 238 240 238 238 244 246 246 245 246 245 238 237 239 241 240 241 251 247 246 246 248 250 250 251 251 252 253 255 257 260 263 267 271 274 276 279
315 315 317 318 320 321 321 319 314 309 306 305 303 301 302 303 302 301 299 292 284 278 272 269 267 265 258 246 241 241 243 240 242 245 242 241 244 240 235 237 238 238 242 244 238 229 223 232 237 238 241 241 236 241 243 245 244 243 243 240 239 238 241 242 240 241 254 250 250 252 253 254 253 253 254 254 255 258 260 261 264 267 268 272 275
314 315 317 318 320 321 322 321 317 312 309 306 304 303 303 303 301 300 298 293 286 279 272 265 262 263 260 252 243 237 240 239 241 243 241 237 242 240 237 237 235 240 245 245 239 233 228 231 240 237 237 241 242 241 243 242 241 239 238 239 242 241 242 243 242 238 252 253 255 253 254 254 253 253 253 254 256 258 260 262 265 267 270 273 277
314 315 317 318 320 321 322 322 319 315 311 308 305 304 303 303 301 299 296 293 289 281 275 269 264 260 255 249 245 240 235 nan 233 239 242 240 240 239 238 235 233 235 245 246 242 234 229 228 236 236 236 239 243 243 241 240 240 238 234 235 242 244 244 245 245 239 249 254 255 256 254 254 254 253 253 254 257 258 261 264 267 270 273 276 278
315 315 316 317 319 320 320 321 319 315 312 310 307 305 304 303 300 297 296 294 290 284 278 nan nan 268 255 248 242 239 234 230 227 231 237 236 236 236 238 237 234 236 245 248 244 240 234 231 232 235 234 235 239 243 244 240 239 238 234 234 240 245 246 246 246 243 246 253 253 256 255 256 255 255 255 255 256 259 262 266 268 272 275 277 277
nan 316 316 316 316 318 319 319 318 316 313 310 308 307 306 304 301 298 297 298 295 288 281 nan nan 279 262 245 240 236 232 228 224 225 231 234 233 233 237 240 238 236 247 254 248 241 239 235 233 232 234 235 241 245 248 245 239 237 235 233 236 243 247 247 246 245 243 244 244 246 250 252 256 258 258 256 257 259 262 265 268 271 271 271 270
nan nan 314 315 315 316 317 317 317 315 312 310 309 309 307 305 302 301 302 302 299 294 288 nan nan nan 268 248 238 nan nan nan nan nan nan 231 233 229 232 237 241 237 243 254 251 243 241 238 235 234 233 234 239 244 249 248 241 236 235 236 235 244 248 248 245 242 242 245 248 255 254 255 257 256 257 257 258 260 262 263 265 266 264 265 263
nan nan nan 313 312 314 314 314 315 313 311 311 311 309 307 304 302 304 305 303 300 297 294 nan nan nan nan nan nan nan nan nan nan nan nan nan 232 233 229 234 237 239 238 244 250 245 242 239 236 237 236 233 235 241 244 249 246 242 238 237 239 246 247 244 242 243 239 233 241 248 253 253 253 257 258 261 261 262 262 260 261 260 263 262 263
nan 315 313 312 312 312 313 313 313 312 311 310 309 305 304 304 302 304 307 305 304 301 nan nan nan nan nan nan nan nan nan nan nan nan nan nan nan 219 224 229 232 235 234 239 241 245 243 241 236 237 235 233 234 239 246 250 251 247 242 239 235 236 241 242 242 244 240 235 239 247 251 253 251 251 251 251 252 260 257 260 253 262 263 262 264
nan 314 312 311 311 311 312 311 311 311 311 310 303 302 306 304 303 307 310 310 308 308 303 nan nan nan nan nan nan nan nan nan nan nan nan nan nan nan 218 221 222 224 230 236 241 245 244 240 235 236 237 235 234 236 240 246 248 247 243 239 236 235 238 239 236 239 244 240 244 249 245 248 248 248 248 247 247 256 247 251 246 249 262 nan nan
314 313 312 312 310 309 309 310 309 309 311 309 306 310 313 316 312 309 313 315 314 314 308 nan nan nan nan nan nan nan nan nan nan nan nan nan nan nan nan nan nan 221 225 236 nan 246 243 238 234 233 231 234 235 235 238 242 246 247 243 238 237 238 239 241 239 235 239 245 249 249 243 242 246 245 246 246 245 247 245 241 255 261 261 274 nan
313 312 311 310 310 310 310 309 309 308 309 308 311 313 317 316 315 314 319 320 318 317 309 nan nan nan nan nan nan nan nan nan nan nan nan 215 216 216 nan nan nan nan nan nan nan 238 240 237 234 230 230 nan 238 238 238 239 243 247 246 242 242 241 241 240 239 242 243 250 246 248 242 241 245 244 243 244 243 242 240 242 256 264 266 267 273
312 313 311 311 310 310 311 311 310 309 306 309 314 316 318 321 321 323 325 325 324 320 312 301 nan nan nan nan nan nan nan nan nan nan nan nan nan nan nan nan nan nan nan nan nan nan 230 233 232 230 229 231 235 237 236 238 242 246 248 246 245 242 238 241 240 237 235 240 248 245 243 238 243 246 243 242 241 240 241 249 255 259 263 265 265
313 312 310 309 310 311 311 312 312 308 305 299 314 315 319 323 323 326 329 330 329 323 315 306 294 nan nan nan nan nan nan nan nan nan nan nan nan nan nan nan nan nan nan nan nan nan nan 227 231 231 227 228 232 234 237 240 244 247 250 249 248 244 239 237 238 235 240 248 243 247 245 247 248 244 242 240 241 239 235 248 262 260 258 259 262
312 311 309 310 310 311 312 313 311 307 298 306 318 319 321 323 326 328 330 331 331 328 319 310 311 324 nan nan nan nan nan nan nan nan nan nan nan nan nan nan nan nan nan nan nan nan nan nan nan 227 228 231 232 230 235 239 236 244 249 249 250 240 237 239 237 241 239 243 249 250 248 246 247 242 238 240 242 242 238 250 259 257 255 258 264
311 311 312 311 310 310 311 311 310 307 300 317 324 323 322 326 326 324 328 329 333 332 324 316 322 337 341 320 261 234 nan nan nan nan nan nan nan nan nan nan nan nan nan nan nan nan nan 229 225 221 225 228 nan 227 231 236 241 247 248 246 242 235 229 228 229 233 238 244 248 253 250 247 246 242 239 240 241 240 240 238 259 260 258 260 266
312 311 309 309 308 309 310 310 310 309 304 314 321 321 323 326 323 324 323 326 330 333 328 322 325 338 352 342 261 226 222 nan nan nan nan nan nan nan nan nan nan nan nan nan nan nan nan nan nan nan nan nan nan nan nan nan 216 234 248 246 246 242 234 229 226 229 236 240 242 250 250 247 246 244 240 243 244 243 242 237 242 254 262 262 265
311 305 303 298 298 301 303 303 307 305 303 308 319 321 324 328 326 321 321 322 327 329 328 326 326 332 352 13 343 229 215 218 nan nan nan nan nan nan nan nan nan nan nan nan 226 238 nan nan nan nan nan nan nan nan nan nan nan 231 243 245 246 246 238 232 228 228 229 234 238 244 245 245 247 245 243 242 243 242 242 241 245 249 254 257 261
299 298 294 297 301 299 295 300 300 301 315 318 317 322 326 328 324 322 323 321 323 325 325 327 328 331 337 345 8 257 223 213 205 nan nan nan nan nan nan nan nan nan nan nan 227 232 241 nan nan nan nan nan nan nan nan nan nan nan 241 243 243 244 238 228 224 222 223 225 233 245 242 246 247 247 247 245 242 244 244 245 250 252 253 257 258